FREQUENCY,Transmission
 1538500000 ,-012.557
 1538625000 ,-012.473
 1538750000 ,-012.380
 1538875000 ,-012.278
 1539000000 ,-012.168
 1539125000 ,-012.050
 1539250000 ,-011.925
 1539375000 ,-011.792
 1539500000 ,-011.651
 1539625000 ,-011.504
 1539750000 ,-011.360
 1539875000 ,-011.218
 1540000000 ,-011.081
 1540125000 ,-010.946
 1540250000 ,-010.816
 1540375000 ,-010.692
 1540500000 ,-010.571
 1540625000 ,-010.453
 1540750000 ,-010.339
 1540875000 ,-010.229
 1541000000 ,-010.124
 1541125000 ,-010.023
 1541250000 ,-009.926
 1541375000 ,-009.833
 1541500000 ,-009.743
 1541625000 ,-009.658
 1541750000 ,-009.576
 1541875000 ,-009.498
 1542000000 ,-009.424
 1542125000 ,-009.352
 1542250000 ,-009.284
 1542375000 ,-009.218
 1542500000 ,-009.154
 1542625000 ,-009.093
 1542750000 ,-009.036
 1542875000 ,-008.980
 1543000000 ,-008.928
 1543125000 ,-008.878
 1543250000 ,-008.831
 1543375000 ,-008.787
 1543500000 ,-008.743
 1543625000 ,-008.703
 1543750000 ,-008.664
 1543875000 ,-008.626
 1544000000 ,-008.590
 1544125000 ,-008.555
 1544250000 ,-008.520
 1544375000 ,-008.486
 1544500000 ,-008.452
 1544625000 ,-008.417
 1544750000 ,-008.383
 1544875000 ,-008.347
 1545000000 ,-008.311
 1545125000 ,-008.272
 1545250000 ,-008.232
 1545375000 ,-008.190
 1545500000 ,-008.146
 1545625000 ,-008.101
 1545750000 ,-008.054
 1545875000 ,-008.004
 1546000000 ,-007.953
 1546125000 ,-007.901
 1546250000 ,-007.848
 1546375000 ,-007.793
 1546500000 ,-007.738
 1546625000 ,-007.682
 1546750000 ,-007.628
 1546875000 ,-007.572
 1547000000 ,-007.517
 1547125000 ,-007.462
 1547250000 ,-007.407
 1547375000 ,-007.354
 1547500000 ,-007.302
 1547625000 ,-007.250
 1547750000 ,-007.200
 1547875000 ,-007.150
 1548000000 ,-007.102
 1548125000 ,-007.055
 1548250000 ,-007.008
 1548375000 ,-006.961
 1548500000 ,-006.916
 1548625000 ,-006.872
 1548750000 ,-006.829
 1548875000 ,-006.786
 1549000000 ,-006.744
 1549125000 ,-006.702
 1549250000 ,-006.662
 1549375000 ,-006.622
 1549500000 ,-006.582
 1549625000 ,-006.543
 1549750000 ,-006.504
 1549875000 ,-006.466
 1550000000 ,-006.428
 1550125000 ,-006.391
 1550250000 ,-006.354
 1550375000 ,-006.318
 1550500000 ,-006.283
 1550625000 ,-006.248
 1550750000 ,-006.214
 1550875000 ,-006.180
 1551000000 ,-006.146
 1551125000 ,-006.114
 1551250000 ,-006.081
 1551375000 ,-006.048
 1551500000 ,-006.016
 1551625000 ,-005.985
 1551750000 ,-005.953
 1551875000 ,-005.922
 1552000000 ,-005.892
 1552125000 ,-005.861
 1552250000 ,-005.831
 1552375000 ,-005.802
 1552500000 ,-005.773
 1552625000 ,-005.743
 1552750000 ,-005.715
 1552875000 ,-005.686
 1553000000 ,-005.658
 1553125000 ,-005.630
 1553250000 ,-005.603
 1553375000 ,-005.575
 1553500000 ,-005.548
 1553625000 ,-005.521
 1553750000 ,-005.493
 1553875000 ,-005.467
 1554000000 ,-005.439
 1554125000 ,-005.412
 1554250000 ,-005.386
 1554375000 ,-005.359
 1554500000 ,-005.332
 1554625000 ,-005.305
 1554750000 ,-005.278
 1554875000 ,-005.251
 1555000000 ,-005.225
 1555125000 ,-005.197
 1555250000 ,-005.170
 1555375000 ,-005.144
 1555500000 ,-005.117
 1555625000 ,-005.091
 1555750000 ,-005.064
 1555875000 ,-005.037
 1556000000 ,-005.010
 1556125000 ,-004.984
 1556250000 ,-004.958
 1556375000 ,-004.931
 1556500000 ,-004.905
 1556625000 ,-004.878
 1556750000 ,-004.852
 1556875000 ,-004.825
 1557000000 ,-004.798
 1557125000 ,-004.771
 1557250000 ,-004.745
 1557375000 ,-004.719
 1557500000 ,-004.692
 1557625000 ,-004.666
 1557750000 ,-004.640
 1557875000 ,-004.614
 1558000000 ,-004.589
 1558125000 ,-004.563
 1558250000 ,-004.537
 1558375000 ,-004.512
 1558500000 ,-004.487
 1558625000 ,-004.461
 1558750000 ,-004.436
 1558875000 ,-004.412
 1559000000 ,-004.387
 1559125000 ,-004.363
 1559250000 ,-004.339
 1559375000 ,-004.315
 1559500000 ,-004.291
 1559625000 ,-004.267
 1559750000 ,-004.242
 1559875000 ,-004.218
 1560000000 ,-004.194
 1560125000 ,-004.170
 1560250000 ,-004.146
 1560375000 ,-004.122
 1560500000 ,-004.098
 1560625000 ,-004.075
 1560750000 ,-004.052
 1560875000 ,-004.028
 1561000000 ,-004.006
 1561125000 ,-003.984
 1561250000 ,-003.962
 1561375000 ,-003.940
 1561500000 ,-003.918
 1561625000 ,-003.897
 1561750000 ,-003.876
 1561875000 ,-003.855
 1562000000 ,-003.834
 1562125000 ,-003.814
 1562250000 ,-003.794
 1562375000 ,-003.773
 1562500000 ,-003.753
 1562625000 ,-003.733
 1562750000 ,-003.713
 1562875000 ,-003.693
 1563000000 ,-003.674
 1563125000 ,-003.654
 1563250000 ,-003.633
 1563375000 ,-003.613
 1563500000 ,-003.593
 1563625000 ,-003.573
 1563750000 ,-003.553
 1563875000 ,-003.533
 1564000000 ,-003.512
 1564125000 ,-003.493
 1564250000 ,-003.473
 1564375000 ,-003.454
 1564500000 ,-003.435
 1564625000 ,-003.416
 1564750000 ,-003.397
 1564875000 ,-003.378
 1565000000 ,-003.360
 1565125000 ,-003.341
 1565250000 ,-003.323
 1565375000 ,-003.305
 1565500000 ,-003.288
 1565625000 ,-003.270
 1565750000 ,-003.253
 1565875000 ,-003.237
 1566000000 ,-003.221
 1566125000 ,-003.205
 1566250000 ,-003.189
 1566375000 ,-003.173
 1566500000 ,-003.158
 1566625000 ,-003.143
 1566750000 ,-003.128
 1566875000 ,-003.113
 1567000000 ,-003.099
 1567125000 ,-003.085
 1567250000 ,-003.070
 1567375000 ,-003.056
 1567500000 ,-003.042
 1567625000 ,-003.029
 1567750000 ,-003.015
 1567875000 ,-003.001
 1568000000 ,-002.988
 1568125000 ,-002.975
 1568250000 ,-002.962
 1568375000 ,-002.949
 1568500000 ,-002.937
 1568625000 ,-002.924
 1568750000 ,-002.912
 1568875000 ,-002.899
 1569000000 ,-002.887
 1569125000 ,-002.876
 1569250000 ,-002.864
 1569375000 ,-002.853
 1569500000 ,-002.841
 1569625000 ,-002.831
 1569750000 ,-002.820
 1569875000 ,-002.809
 1570000000 ,-002.798
 1570125000 ,-002.788
 1570250000 ,-002.777
 1570375000 ,-002.767
 1570500000 ,-002.757
 1570625000 ,-002.748
 1570750000 ,-002.738
 1570875000 ,-002.729
 1571000000 ,-002.720
 1571125000 ,-002.711
 1571250000 ,-002.701
 1571375000 ,-002.692
 1571500000 ,-002.683
 1571625000 ,-002.674
 1571750000 ,-002.666
 1571875000 ,-002.657
 1572000000 ,-002.648
 1572125000 ,-002.640
 1572250000 ,-002.631
 1572375000 ,-002.623
 1572500000 ,-002.615
 1572625000 ,-002.606
 1572750000 ,-002.598
 1572875000 ,-002.590
 1573000000 ,-002.582
 1573125000 ,-002.575
 1573250000 ,-002.567
 1573375000 ,-002.560
 1573500000 ,-002.553
 1573625000 ,-002.547
 1573750000 ,-002.540
 1573875000 ,-002.533
 1574000000 ,-002.526
 1574125000 ,-002.520
 1574250000 ,-002.514
 1574375000 ,-002.508
 1574500000 ,-002.503
 1574625000 ,-002.497
 1574750000 ,-002.491
 1574875000 ,-002.486
 1575000000 ,-002.481
 1575125000 ,-002.475
 1575250000 ,-002.470
 1575375000 ,-002.465
 1575500000 ,-002.460
 1575625000 ,-002.455
 1575750000 ,-002.450
 1575875000 ,-002.446
 1576000000 ,-002.441
 1576125000 ,-002.437
 1576250000 ,-002.432
 1576375000 ,-002.427
 1576500000 ,-002.422
 1576625000 ,-002.417
 1576750000 ,-002.413
 1576875000 ,-002.408
 1577000000 ,-002.402
 1577125000 ,-002.398
 1577250000 ,-002.393
 1577375000 ,-002.388
 1577500000 ,-002.383
 1577625000 ,-002.378
 1577750000 ,-002.373
 1577875000 ,-002.368
 1578000000 ,-002.363
 1578125000 ,-002.359
 1578250000 ,-002.354
 1578375000 ,-002.350
 1578500000 ,-002.346
 1578625000 ,-002.342
 1578750000 ,-002.338
 1578875000 ,-002.334
 1579000000 ,-002.330
 1579125000 ,-002.327
 1579250000 ,-002.323
 1579375000 ,-002.320
 1579500000 ,-002.317
 1579625000 ,-002.313
 1579750000 ,-002.311
 1579875000 ,-002.308
 1580000000 ,-002.305
 1580125000 ,-002.301
 1580250000 ,-002.298
 1580375000 ,-002.295
 1580500000 ,-002.292
 1580625000 ,-002.290
 1580750000 ,-002.288
 1580875000 ,-002.285
 1581000000 ,-002.283
 1581125000 ,-002.280
 1581250000 ,-002.278
 1581375000 ,-002.275
 1581500000 ,-002.273
 1581625000 ,-002.270
 1581750000 ,-002.267
 1581875000 ,-002.265
 1582000000 ,-002.262
 1582125000 ,-002.260
 1582250000 ,-002.258
 1582375000 ,-002.255
 1582500000 ,-002.252
 1582625000 ,-002.250
 1582750000 ,-002.248
 1582875000 ,-002.245
 1583000000 ,-002.243
 1583125000 ,-002.240
 1583250000 ,-002.237
 1583375000 ,-002.234
 1583500000 ,-002.232
 1583625000 ,-002.229
 1583750000 ,-002.226
 1583875000 ,-002.224
 1584000000 ,-002.222
 1584125000 ,-002.220
 1584250000 ,-002.217
 1584375000 ,-002.215
 1584500000 ,-002.213
 1584625000 ,-002.210
 1584750000 ,-002.208
 1584875000 ,-002.206
 1585000000 ,-002.204
 1585125000 ,-002.202
 1585250000 ,-002.201
 1585375000 ,-002.200
 1585500000 ,-002.198
 1585625000 ,-002.197
 1585750000 ,-002.197
 1585875000 ,-002.196
 1586000000 ,-002.194
 1586125000 ,-002.193
 1586250000 ,-002.192
 1586375000 ,-002.191
 1586500000 ,-002.190
 1586625000 ,-002.189
 1586750000 ,-002.189
 1586875000 ,-002.188
 1587000000 ,-002.187
 1587125000 ,-002.186
 1587250000 ,-002.186
 1587375000 ,-002.186
 1587500000 ,-002.185
 1587625000 ,-002.185
 1587750000 ,-002.184
 1587875000 ,-002.184
 1588000000 ,-002.185
 1588125000 ,-002.185
 1588250000 ,-002.185
 1588375000 ,-002.186
 1588500000 ,-002.187
 1588625000 ,-002.188
 1588750000 ,-002.190
 1588875000 ,-002.192
 1589000000 ,-002.193
 1589125000 ,-002.195
 1589250000 ,-002.197
 1589375000 ,-002.199
 1589500000 ,-002.201
 1589625000 ,-002.202
 1589750000 ,-002.205
 1589875000 ,-002.207
 1590000000 ,-002.209
 1590125000 ,-002.211
 1590250000 ,-002.214
 1590375000 ,-002.216
 1590500000 ,-002.218
 1590625000 ,-002.221
 1590750000 ,-002.223
 1590875000 ,-002.226
 1591000000 ,-002.228
 1591125000 ,-002.231
 1591250000 ,-002.234
 1591375000 ,-002.237
 1591500000 ,-002.239
 1591625000 ,-002.242
 1591750000 ,-002.245
 1591875000 ,-002.248
 1592000000 ,-002.252
 1592125000 ,-002.255
 1592250000 ,-002.259
 1592375000 ,-002.262
 1592500000 ,-002.266
 1592625000 ,-002.269
 1592750000 ,-002.273
 1592875000 ,-002.277
 1593000000 ,-002.281
 1593125000 ,-002.286
 1593250000 ,-002.290
 1593375000 ,-002.295
 1593500000 ,-002.299
 1593625000 ,-002.304
 1593750000 ,-002.309
 1593875000 ,-002.314
 1594000000 ,-002.320
 1594125000 ,-002.325
 1594250000 ,-002.330
 1594375000 ,-002.336
 1594500000 ,-002.341
 1594625000 ,-002.346
 1594750000 ,-002.352
 1594875000 ,-002.357
 1595000000 ,-002.362
 1595125000 ,-002.368
 1595250000 ,-002.374
 1595375000 ,-002.380
 1595500000 ,-002.386
 1595625000 ,-002.392
 1595750000 ,-002.398
 1595875000 ,-002.404
 1596000000 ,-002.410
 1596125000 ,-002.415
 1596250000 ,-002.421
 1596375000 ,-002.427
 1596500000 ,-002.433
 1596625000 ,-002.440
 1596750000 ,-002.447
 1596875000 ,-002.453
 1597000000 ,-002.460
 1597125000 ,-002.467
 1597250000 ,-002.473
 1597375000 ,-002.479
 1597500000 ,-002.486
 1597625000 ,-002.494
 1597750000 ,-002.500
 1597875000 ,-002.508
 1598000000 ,-002.515
 1598125000 ,-002.522
 1598250000 ,-002.530
 1598375000 ,-002.538
 1598500000 ,-002.546
 1598625000 ,-002.553
 1598750000 ,-002.561
 1598875000 ,-002.568
 1599000000 ,-002.577
 1599125000 ,-002.585
 1599250000 ,-002.593
 1599375000 ,-002.601
 1599500000 ,-002.609
 1599625000 ,-002.617
 1599750000 ,-002.625
 1599875000 ,-002.634
 1600000000 ,-002.641
 1600125000 ,-002.650
 1600250000 ,-002.658
 1600375000 ,-002.666
 1600500000 ,-002.674
 1600625000 ,-002.683
 1600750000 ,-002.691
 1600875000 ,-002.699
 1601000000 ,-002.707
 1601125000 ,-002.715
 1601250000 ,-002.723
 1601375000 ,-002.730
 1601500000 ,-002.738
 1601625000 ,-002.746
 1601750000 ,-002.754
 1601875000 ,-002.761
 1602000000 ,-002.768
 1602125000 ,-002.777
 1602250000 ,-002.785
 1602375000 ,-002.792
 1602500000 ,-002.800
 1602625000 ,-002.807
 1602750000 ,-002.814
 1602875000 ,-002.822
 1603000000 ,-002.830
 1603125000 ,-002.839
 1603250000 ,-002.847
 1603375000 ,-002.855
 1603500000 ,-002.863
 1603625000 ,-002.872
 1603750000 ,-002.880
 1603875000 ,-002.889
 1604000000 ,-002.898
 1604125000 ,-002.907
 1604250000 ,-002.916
 1604375000 ,-002.925
 1604500000 ,-002.933
 1604625000 ,-002.942
 1604750000 ,-002.951
 1604875000 ,-002.960
 1605000000 ,-002.969
 1605125000 ,-002.977
 1605250000 ,-002.986
 1605375000 ,-002.995
 1605500000 ,-003.004
 1605625000 ,-003.013
 1605750000 ,-003.021
 1605875000 ,-003.030
 1606000000 ,-003.039
 1606125000 ,-003.049
 1606250000 ,-003.058
 1606375000 ,-003.068
 1606500000 ,-003.078
 1606625000 ,-003.088
 1606750000 ,-003.099
 1606875000 ,-003.108
 1607000000 ,-003.119
 1607125000 ,-003.129
 1607250000 ,-003.139
 1607375000 ,-003.150
 1607500000 ,-003.160
 1607625000 ,-003.171
 1607750000 ,-003.181
 1607875000 ,-003.191
 1608000000 ,-003.202
 1608125000 ,-003.212
 1608250000 ,-003.221
 1608375000 ,-003.231
 1608500000 ,-003.240
 1608625000 ,-003.250
 1608750000 ,-003.259
 1608875000 ,-003.268
 1609000000 ,-003.278
 1609125000 ,-003.287
 1609250000 ,-003.297
 1609375000 ,-003.307
 1609500000 ,-003.317
 1609625000 ,-003.326
 1609750000 ,-003.335
 1609875000 ,-003.345
 1610000000 ,-003.355
 1610125000 ,-003.365
 1610250000 ,-003.374
 1610375000 ,-003.385
 1610500000 ,-003.395
 1610625000 ,-003.405
 1610750000 ,-003.414
 1610875000 ,-003.425
 1611000000 ,-003.434
 1611125000 ,-003.444
 1611250000 ,-003.453
 1611375000 ,-003.462
 1611500000 ,-003.472
 1611625000 ,-003.482
 1611750000 ,-003.493
 1611875000 ,-003.502
 1612000000 ,-003.512
 1612125000 ,-003.521
 1612250000 ,-003.532
 1612375000 ,-003.542
 1612500000 ,-003.552
 1612625000 ,-003.563
 1612750000 ,-003.573
 1612875000 ,-003.583
 1613000000 ,-003.594
 1613125000 ,-003.604
 1613250000 ,-003.615
 1613375000 ,-003.627
 1613500000 ,-003.638
 1613625000 ,-003.650
 1613750000 ,-003.662
 1613875000 ,-003.674
 1614000000 ,-003.685
 1614125000 ,-003.698
 1614250000 ,-003.710
 1614375000 ,-003.723
 1614500000 ,-003.736
 1614625000 ,-003.750
 1614750000 ,-003.763
 1614875000 ,-003.777
 1615000000 ,-003.792
 1615125000 ,-003.808
 1615250000 ,-003.823
 1615375000 ,-003.839
 1615500000 ,-003.855
 1615625000 ,-003.872
 1615750000 ,-003.889
 1615875000 ,-003.907
 1616000000 ,-003.926
 1616125000 ,-003.946
 1616250000 ,-003.965
 1616375000 ,-003.986
 1616500000 ,-004.007
 1616625000 ,-004.028
 1616750000 ,-004.050
 1616875000 ,-004.073
 1617000000 ,-004.097
 1617125000 ,-004.122
 1617250000 ,-004.147
 1617375000 ,-004.173
 1617500000 ,-004.199
 1617625000 ,-004.227
 1617750000 ,-004.254
 1617875000 ,-004.282
 1618000000 ,-004.311
 1618125000 ,-004.340
 1618250000 ,-004.369
 1618375000 ,-004.399
 1618500000 ,-004.430
 1618625000 ,-004.461
 1618750000 ,-004.493
 1618875000 ,-004.525
 1619000000 ,-004.557
 1619125000 ,-004.590
 1619250000 ,-004.624
 1619375000 ,-004.658
 1619500000 ,-004.693
 1619625000 ,-004.729
 1619750000 ,-004.764
 1619875000 ,-004.801
 1620000000 ,-004.838
 1620125000 ,-004.877
 1620250000 ,-004.916
 1620375000 ,-004.957
 1620500000 ,-004.998
 1620625000 ,-005.040
 1620750000 ,-005.083
 1620875000 ,-005.128
 1621000000 ,-005.174
 1621125000 ,-005.221
 1621250000 ,-005.268
 1621375000 ,-005.318
 1621500000 ,-005.368
 1621625000 ,-005.420
 1621750000 ,-005.474
 1621875000 ,-005.529
 1622000000 ,-005.586
 1622125000 ,-005.644
 1622250000 ,-005.703
 1622375000 ,-005.764
 1622500000 ,-005.826
 1622625000 ,-005.889
 1622750000 ,-005.954
 1622875000 ,-006.021
 1623000000 ,-006.088
 1623125000 ,-006.158
 1623250000 ,-006.229
 1623375000 ,-006.301
 1623500000 ,-006.375
 1623625000 ,-006.450
 1623750000 ,-006.527
 1623875000 ,-006.605
 1624000000 ,-006.685
 1624125000 ,-006.766
 1624250000 ,-006.848
 1624375000 ,-006.932
 1624500000 ,-007.018
 1624625000 ,-007.106
 1624750000 ,-007.195
 1624875000 ,-007.287
 1625000000 ,-007.380
 1625125000 ,-007.475
 1625250000 ,-007.570
 1625375000 ,-007.668
 1625500000 ,-007.769
 1625625000 ,-007.872
 1625750000 ,-007.976
 1625875000 ,-008.083
 1626000000 ,-008.192
 1626125000 ,-008.304
 1626250000 ,-008.417
 1626375000 ,-008.534
 1626500000 ,-008.654
 1626625000 ,-008.776
 1626750000 ,-008.901
 1626875000 ,-009.030
 1627000000 ,-009.161
 1627125000 ,-009.294
 1627250000 ,-009.429
 1627375000 ,-009.568
 1627500000 ,-009.708
 1627625000 ,-009.852
 1627750000 ,-009.997
 1627875000 ,-010.145
 1628000000 ,-010.293
 1628125000 ,-010.445
 1628250000 ,-010.600
 1628375000 ,-010.756
 1628500000 ,-010.915
 1628625000 ,-011.074
 1628750000 ,-011.235
 1628875000 ,-011.398
 1629000000 ,-011.562
 1629125000 ,-011.729
 1629250000 ,-011.899
 1629375000 ,-012.071
 1629500000 ,-012.245
 1629625000 ,-012.421
 1629750000 ,-012.600
 1629875000 ,-012.780
 1630000000 ,-012.963
 1630125000 ,-013.148
 1630250000 ,-013.334
 1630375000 ,-013.522
 1630500000 ,-013.714
 1630625000 ,-013.909
 1630750000 ,-014.106
 1630875000 ,-014.306
 1631000000 ,-014.507
 1631125000 ,-014.711
 1631250000 ,-014.915
 1631375000 ,-015.122
 1631500000 ,-015.332
 1631625000 ,-015.544
 1631750000 ,-015.759
 1631875000 ,-015.975
 1632000000 ,-016.194
 1632125000 ,-016.416
 1632250000 ,-016.638
 1632375000 ,-016.862
 1632500000 ,-017.090
 1632625000 ,-017.319
 1632750000 ,-017.548
 1632875000 ,-017.780
 1633000000 ,-018.014
 1633125000 ,-018.249
 1633250000 ,-018.486
 1633375000 ,-018.725
 1633500000 ,-018.965
 1633625000 ,-019.206
 1633750000 ,-019.446
 1633875000 ,-019.689
 1634000000 ,-019.934
 1634125000 ,-020.179
 1634250000 ,-020.424
 1634375000 ,-020.671
 1634500000 ,-020.919
 1634625000 ,-021.167
 1634750000 ,-021.417
 1634875000 ,-021.669
 1635000000 ,-021.923
 1635125000 ,-022.178
 1635250000 ,-022.433
 1635375000 ,-022.690
 1635500000 ,-022.950
 1635625000 ,-023.209
 1635750000 ,-023.469
 1635875000 ,-023.732
 1636000000 ,-023.997
 1636125000 ,-024.267
 1636250000 ,-024.538
 1636375000 ,-024.811
 1636500000 ,-025.088
 1636625000 ,-025.367
 1636750000 ,-025.647
 1636875000 ,-025.930
 1637000000 ,-026.210
 1637125000 ,-026.491
 1637250000 ,-026.775
 1637375000 ,-027.061
 1637500000 ,-027.347
 1637625000 ,-027.618
 1637750000 ,-027.873
 1637875000 ,-028.112
 1638000000 ,-028.334
 1638125000 ,-028.539
 1638250000 ,-028.726
 1638375000 ,-028.896
